This is the latest recevied weather packets stored in our database for station/object KE6YLF. If no packets are shown the sender has not sent any weather packets the latest 10 day(s).
| Time | Temp. | Humidity | Pressure | Rain* | Wind** | Luminosity | Snow |
|---|---|---|---|---|---|---|---|
| 1788172961 | 26.67° C | 73% | 1075.4 hPa | 0 mm | - | - | - |
| 1788172660 | 26.67° C | 72% | 1075.6 hPa | 0 mm | - | - | - |
| 1788172356 | 26.67° C | 73% | 1075.6 hPa | 1.78 mm | - | - | - |
| 1788172055 | 26.11° C | 68% | 1075.6 hPa | 6.6 mm | - | - | - |
| 1788171750 | 25° C | 78% | 1075.8 hPa | 4.32 mm | - | - | - |
| 1788171446 | 28.33° C | 70% | 1075.7 hPa | 0 mm | - | - | - |
| 1788171142 | 30.56° C | 59% | 1075.8 hPa | 0 mm | - | - | - |
| 1788170838 | 30.56° C | 59% | 1075.6 hPa | 0 mm | - | - | - |
| 1788170533 | 30.56° C | 59% | 1075.3 hPa | 0 mm | - | - | - |
| 1788170232 | 30.56° C | 59% | 1075.3 hPa | 0 mm | - | - | - |
| 1788169927 | 30.56° C | 59% | 1075.4 hPa | 0 mm | - | - | - |
| 1788169622 | 30.56° C | 59% | 1075.3 hPa | 0 mm | - | - | - |
| 1788169318 | 30.56° C | 59% | 1075.5 hPa | 0 mm | - | - | - |
| 1788169013 | 30.56° C | 59% | 1075.6 hPa | 0 mm | - | - | - |
| 1788168709 | 30.56° C | 58% | 1075.7 hPa | 0 mm | - | - | - |
| 1788168405 | 30.56° C | 58% | 1075.6 hPa | 0 mm | - | - | - |
| 1788168101 | 30.56° C | 52% | 1075.6 hPa | 0 mm | - | - | - |
| 1788167800 | 30.56° C | 52% | 1075.5 hPa | 0 mm | - | - | - |
| 1788167496 | 30.56° C | 52% | 1075.5 hPa | 0 mm | - | - | - |
| 1788167191 | 30.56° C | 54% | 1075.5 hPa | 0 mm | - | - | - |
| 1788166887 | 30.56° C | 54% | 1075.5 hPa | 0 mm | - | - | - |
| 1788166582 | 30.56° C | 54% | 1075.7 hPa | 0 mm | - | - | - |
| 1788166277 | 30.56° C | 54% | 1075.5 hPa | 0 mm | - | - | - |
| 1788165973 | 30.56° C | 54% | 1075.7 hPa | 0 mm | - | - | - |
| 1788165669 | 30.56° C | 53% | 1075.6 hPa | 0 mm | - | - | - |
* Rain latest hour (hover to see other rain measurements)
** Current wind speed in m/s (hover to see current wind gust speed)